Location: Alta
(39.2070°N, 120.8111°W)
Time: 12:02:37
(UTC+00:00)

NANOSAT C BR1 - Pass Details

Date: 02 April 2023
Orbit: 573 x 586 km, 98.0° (Epoch: 10 June)

Event Time Altitude Azimuth Distance (km) Brightness Sun altitude
Rises 11:09:40 0° 5° (N) 2,803 ? -29.0°
Reaches altitude 10° 11:11:53 10° 359° (N) 1,897 ? -28.7°
Enters shadow 11:13:12 19° 351° (N) 1,397 ? -28.5°
